Time,TemperatureF,DewpointF,PressureIn,WindDirection,WindDirectionDegrees,WindSpeedMPH,WindSpeedGustMPH,Humidity,HourlyPrecipIn,Conditions,Clouds,dailyrainin,SoftwareType,DateUTC
2013-05-22 00:00:00,74.6,61.2,29.74,SSW,203,1.0,-999.0,63,0.00,,,0.00,Wunderground v.1.15,2013-05-22 04:00:00,
2013-05-22 00:05:00,74.6,61.2,29.74,SSW,203,1.0,-999.0,63,0.00,,,0.00,Wunderground v.1.15,2013-05-22 04:05:00,
2013-05-22 00:10:00,74.6,61.2,29.74,SSW,203,1.0,-999.0,63,0.00,,,0.00,Wunderground v.1.15,2013-05-22 04:10:00,
2013-05-22 00:15:00,74.4,61.4,29.74,SSW,203,1.0,-999.0,64,0.00,,,0.00,Wunderground v.1.15,2013-05-22 04:15:00,
2013-05-22 00:20:00,74.4,61.4,29.74,SSW,203,1.0,-999.0,64,0.00,,,0.00,Wunderground v.1.15,2013-05-22 04:20:00,
2013-05-22 00:25:00,74.2,61.2,29.74,SSW,203,1.0,-999.0,64,0.00,,,0.00,Wunderground v.1.15,2013-05-22 04:25:00,
2013-05-22 00:30:00,74.2,61.2,29.74,SSW,203,1.0,-999.0,64,0.00,,,0.00,Wunderground v.1.15,2013-05-22 04:30:00,
2013-05-22 00:35:00,73.8,61.3,29.74,SSW,203,0.0,-999.0,65,0.00,,,0.00,Wunderground v.1.15,2013-05-22 04:35:00,
2013-05-22 00:40:00,73.8,61.3,29.74,SSW,203,0.0,-999.0,65,0.00,,,0.00,Wunderground v.1.15,2013-05-22 04:40:00,
2013-05-22 00:45:00,73.3,61.3,29.74,N/A,-737280,0.0,-999.0,66,0.00,,,0.00,Wunderground v.1.15,2013-05-22 04:45:00,
2013-05-22 00:50:00,73.3,61.3,29.74,N/A,-737280,0.0,-999.0,66,0.00,,,0.00,Wunderground v.1.15,2013-05-22 04:50:00,
2013-05-22 00:55:00,72.7,61.1,29.74,N/A,-737280,0.0,-999.0,67,0.00,,,0.00,Wunderground v.1.15,2013-05-22 04:55:00,
2013-05-22 01:00:00,72.7,61.1,29.74,N/A,-737280,0.0,-999.0,67,0.00,,,0.00,Wunderground v.1.15,2013-05-22 05:00:00,
2013-05-22 01:05:00,72.1,61.4,29.74,N/A,-737280,0.0,-999.0,69,0.00,,,0.00,Wunderground v.1.15,2013-05-22 05:05:00,
2013-05-22 01:10:00,72.1,61.4,29.74,N/A,-737280,0.0,-999.0,69,0.00,,,0.00,Wunderground v.1.15,2013-05-22 05:10:00,
2013-05-22 01:15:00,71.8,61.1,29.73,SSE,158,0.0,-999.0,69,0.00,,,0.00,Wunderground v.1.15,2013-05-22 05:15:00,
2013-05-22 01:20:00,71.8,61.1,29.73,SSE,158,0.0,-999.0,69,0.00,,,0.00,Wunderground v.1.15,2013-05-22 05:20:00,
2013-05-22 01:25:00,71.8,61.1,29.74,SSW,203,1.0,-999.0,69,0.00,,,0.00,Wunderground v.1.15,2013-05-22 05:25:00,
2013-05-22 01:30:00,71.8,61.1,29.74,SSW,203,1.0,-999.0,69,0.00,,,0.00,Wunderground v.1.15,2013-05-22 05:30:00,
2013-05-22 01:35:00,71.6,61.3,29.74,SSW,203,0.0,-999.0,70,0.00,,,0.00,Wunderground v.1.15,2013-05-22 05:35:00,
2013-05-22 01:40:00,71.6,61.3,29.74,SSW,203,0.0,-999.0,70,0.00,,,0.00,Wunderground v.1.15,2013-05-22 05:40:00,
2013-05-22 01:45:00,71.2,60.9,29.73,SSW,203,0.0,-999.0,70,0.00,,,0.00,Wunderground v.1.15,2013-05-22 05:45:00,
2013-05-22 01:50:00,71.2,60.9,29.73,SSW,203,0.0,-999.0,70,0.00,,,0.00,Wunderground v.1.15,2013-05-22 05:50:00,
2013-05-22 01:55:00,70.6,61.1,29.73,SSW,203,0.0,-999.0,72,0.00,,,0.00,Wunderground v.1.15,2013-05-22 05:55:00,
2013-05-22 02:00:00,70.6,61.1,29.73,SSW,203,0.0,-999.0,72,0.00,,,0.00,Wunderground v.1.15,2013-05-22 06:00:00,
2013-05-22 02:05:00,70.5,61.0,29.73,SSW,203,1.0,-999.0,72,0.00,,,0.00,Wunderground v.1.15,2013-05-22 06:05:00,
2013-05-22 02:15:00,70.6,61.1,29.72,SSW,203,1.0,-999.0,72,0.00,,,0.00,Wunderground v.1.15,2013-05-22 06:15:00,
2013-05-22 02:20:00,70.6,61.1,29.72,SSW,203,1.0,-999.0,72,0.00,,,0.00,Wunderground v.1.15,2013-05-22 06:20:00,
2013-05-22 02:25:00,70.5,61.0,29.73,SSW,203,1.0,-999.0,72,0.00,,,0.00,Wunderground v.1.15,2013-05-22 06:25:00,
2013-05-22 02:30:00,70.5,61.0,29.73,SSW,203,1.0,-999.0,72,0.00,,,0.00,Wunderground v.1.15,2013-05-22 06:30:00,
2013-05-22 02:35:00,70.4,60.9,29.72,SSW,203,1.0,-999.0,72,0.00,,,0.00,Wunderground v.1.15,2013-05-22 06:35:00,
2013-05-22 02:40:00,70.4,60.9,29.72,SSW,203,1.0,-999.0,72,0.00,,,0.00,Wunderground v.1.15,2013-05-22 06:40:00,
2013-05-22 02:45:00,70.2,60.7,29.72,SSW,203,1.0,-999.0,72,0.00,,,0.00,Wunderground v.1.15,2013-05-22 06:45:00,
2013-05-22 02:50:00,70.2,60.7,29.72,SSW,203,1.0,-999.0,72,0.00,,,0.00,Wunderground v.1.15,2013-05-22 06:50:00,
2013-05-22 02:55:00,70.1,60.7,29.73,SSW,203,1.0,-999.0,72,0.00,,,0.00,Wunderground v.1.15,2013-05-22 06:55:00,
2013-05-22 03:00:00,70.1,60.7,29.73,SSW,203,1.0,-999.0,72,0.00,,,0.00,Wunderground v.1.15,2013-05-22 07:00:00,
2013-05-22 03:05:00,69.8,60.4,29.73,SSW,203,1.0,-999.0,72,0.00,,,0.00,Wunderground v.1.15,2013-05-22 07:05:00,
2013-05-22 03:10:00,69.8,60.4,29.73,SSW,203,1.0,-999.0,72,0.00,,,0.00,Wunderground v.1.15,2013-05-22 07:10:00,
2013-05-22 03:15:00,69.6,60.6,29.72,SSW,203,1.0,-999.0,73,0.00,,,0.00,Wunderground v.1.15,2013-05-22 07:15:00,
2013-05-22 03:20:00,69.6,60.6,29.72,SSW,203,1.0,-999.0,73,0.00,,,0.00,Wunderground v.1.15,2013-05-22 07:20:00,
2013-05-22 03:25:00,69.5,60.5,29.72,SSW,203,1.0,-999.0,73,0.00,,,0.00,Wunderground v.1.15,2013-05-22 07:25:00,
2013-05-22 03:30:00,69.5,60.5,29.72,SSW,203,1.0,-999.0,73,0.00,,,0.00,Wunderground v.1.15,2013-05-22 07:30:00,
2013-05-22 03:35:00,69.2,60.2,29.72,SSW,203,1.0,-999.0,73,0.00,,,0.00,Wunderground v.1.15,2013-05-22 07:35:00,
2013-05-22 03:40:00,69.2,60.2,29.72,SSW,203,1.0,-999.0,73,0.00,,,0.00,Wunderground v.1.15,2013-05-22 07:40:00,
2013-05-22 03:45:00,68.9,60.3,29.72,SSW,203,0.0,-999.0,74,0.00,,,0.00,Wunderground v.1.15,2013-05-22 07:45:00,
2013-05-22 03:50:00,68.9,60.3,29.72,SSW,203,0.0,-999.0,74,0.00,,,0.00,Wunderground v.1.15,2013-05-22 07:50:00,
2013-05-22 03:55:00,68.4,60.2,29.72,SW,225,0.0,-999.0,75,0.00,,,0.00,Wunderground v.1.15,2013-05-22 07:55:00,
2013-05-22 04:00:00,68.4,60.2,29.72,SW,225,0.0,-999.0,75,0.00,,,0.00,Wunderground v.1.15,2013-05-22 08:00:00,
2013-05-22 04:05:00,68.3,60.1,29.71,SSW,203,0.0,-999.0,75,0.00,,,0.00,Wunderground v.1.15,2013-05-22 08:05:00,
2013-05-22 04:10:00,68.3,60.1,29.71,SSW,203,0.0,-999.0,75,0.00,,,0.00,Wunderground v.1.15,2013-05-22 08:10:00,
2013-05-22 04:15:00,68.2,60.0,29.71,SSW,203,0.0,-999.0,75,0.00,,,0.00,Wunderground v.1.15,2013-05-22 08:15:00,
2013-05-22 04:20:00,68.2,60.0,29.71,SSW,203,0.0,-999.0,75,0.00,,,0.00,Wunderground v.1.15,2013-05-22 08:20:00,
2013-05-22 04:25:00,68.4,60.2,29.71,SSW,203,1.0,-999.0,75,0.00,,,0.00,Wunderground v.1.15,2013-05-22 08:25:00,
2013-05-22 04:30:00,68.4,60.2,29.71,SSW,203,1.0,-999.0,75,0.00,,,0.00,Wunderground v.1.15,2013-05-22 08:30:00,
2013-05-22 04:35:00,68.5,60.3,29.72,SSW,203,1.0,-999.0,75,0.00,,,0.00,Wunderground v.1.15,2013-05-22 08:35:00,
2013-05-22 04:40:00,68.5,60.3,29.72,SSW,203,1.0,-999.0,75,0.00,,,0.00,Wunderground v.1.15,2013-05-22 08:40:00,
2013-05-22 04:45:00,68.7,60.5,29.72,SSW,203,1.0,-999.0,75,0.00,,,0.00,Wunderground v.1.15,2013-05-22 08:45:00,
2013-05-22 04:50:00,68.7,60.5,29.72,SSW,203,1.0,-999.0,75,0.00,,,0.00,Wunderground v.1.15,2013-05-22 08:50:00,
2013-05-22 04:55:00,68.7,60.5,29.71,SW,225,1.0,-999.0,75,0.00,,,0.00,Wunderground v.1.15,2013-05-22 08:55:00,
2013-05-22 05:00:00,68.7,60.5,29.71,SW,225,1.0,-999.0,75,0.00,,,0.00,Wunderground v.1.15,2013-05-22 09:00:00,
2013-05-22 05:05:00,68.8,60.6,29.71,SSW,203,1.0,-999.0,75,0.00,,,0.00,Wunderground v.1.15,2013-05-22 09:05:00,
2013-05-22 05:10:00,68.8,60.6,29.71,SSW,203,1.0,-999.0,75,0.00,,,0.00,Wunderground v.1.15,2013-05-22 09:10:00,
2013-05-22 05:15:00,68.6,60.7,29.71,South,180,0.0,-999.0,76,0.00,,,0.00,Wunderground v.1.15,2013-05-22 09:15:00,
2013-05-22 05:20:00,68.6,60.7,29.71,South,180,0.0,-999.0,76,0.00,,,0.00,Wunderground v.1.15,2013-05-22 09:20:00,
2013-05-22 05:25:00,68.4,60.9,29.71,SW,225,0.0,-999.0,77,0.00,,,0.00,Wunderground v.1.15,2013-05-22 09:25:00,
2013-05-22 05:30:00,68.4,60.9,29.71,SW,225,0.0,-999.0,77,0.00,,,0.00,Wunderground v.1.15,2013-05-22 09:30:00,
2013-05-22 05:35:00,68.4,60.9,29.71,SW,225,1.0,-999.0,77,0.00,,,0.00,Wunderground v.1.15,2013-05-22 09:35:00,
2013-05-22 05:40:00,68.4,60.9,29.71,SW,225,1.0,-999.0,77,0.00,,,0.00,Wunderground v.1.15,2013-05-22 09:40:00,
2013-05-22 05:45:00,68.6,61.5,29.72,SSW,203,1.0,-999.0,78,0.00,,,0.00,Wunderground v.1.15,2013-05-22 09:45:00,
2013-05-22 05:50:00,68.6,61.5,29.72,SSW,203,1.0,-999.0,78,0.00,,,0.00,Wunderground v.1.15,2013-05-22 09:50:00,
2013-05-22 05:55:00,68.7,61.6,29.71,SW,225,0.0,-999.0,78,0.00,,,0.00,Wunderground v.1.15,2013-05-22 09:55:00,
2013-05-22 06:00:00,68.7,61.6,29.71,SW,225,0.0,-999.0,78,0.00,,,0.00,Wunderground v.1.15,2013-05-22 10:00:00,
2013-05-22 06:05:00,68.6,62.2,29.72,SSW,203,1.0,-999.0,80,0.00,,,0.00,Wunderground v.1.15,2013-05-22 10:05:00,
2013-05-22 06:10:00,68.6,62.2,29.72,SSW,203,1.0,-999.0,80,0.00,,,0.00,Wunderground v.1.15,2013-05-22 10:10:00,
2013-05-22 06:15:00,68.3,62.2,29.72,SW,225,0.0,-999.0,81,0.00,,,0.00,Wunderground v.1.15,2013-05-22 10:15:00,
2013-05-22 06:20:00,68.3,62.2,29.72,SW,225,0.0,-999.0,81,0.00,,,0.00,Wunderground v.1.15,2013-05-22 10:20:00,
2013-05-22 06:25:00,68.2,62.5,29.72,SSW,203,0.0,-999.0,82,0.00,,,0.00,Wunderground v.1.15,2013-05-22 10:25:00,
2013-05-22 06:30:00,68.2,62.5,29.72,SSW,203,0.0,-999.0,82,0.00,,,0.00,Wunderground v.1.15,2013-05-22 10:30:00,
2013-05-22 06:35:00,68.1,62.7,29.72,SW,225,1.0,-999.0,83,0.00,,,0.00,Wunderground v.1.15,2013-05-22 10:35:00,
2013-05-22 06:45:00,68.1,62.7,29.72,SW,225,1.0,-999.0,83,0.00,,,0.00,Wunderground v.1.15,2013-05-22 10:45:00,
2013-05-22 06:50:00,68.3,63.3,29.73,SW,221,2.0,2.0,84,0.00,,,0.00,Wunderground v.1.15,2013-05-22 10:50:00,
2013-05-22 07:00:00,68.4,63.7,29.73,SW,225,1.0,1.0,85,0.00,,,0.00,Wunderground v.1.15,2013-05-22 11:00:00,
2013-05-22 07:10:00,68.3,63.6,29.73,South,180,2.0,2.0,85,0.00,,,0.00,Wunderground v.1.15,2013-05-22 11:10:00,
2013-05-22 07:20:00,68.0,64.0,29.73,SW,222,1.0,6.0,87,0.00,,,0.00,Wunderground v.1.15,2013-05-22 11:20:00,
2013-05-22 07:30:00,67.7,64.0,29.73,SSW,192,2.0,3.0,88,0.00,,,0.00,Wunderground v.1.15,2013-05-22 11:30:00,
2013-05-22 07:40:00,67.6,63.9,29.74,SSW,210,1.0,1.0,88,0.00,,,0.00,Wunderground v.1.15,2013-05-22 11:40:00,
2013-05-22 07:50:00,67.7,64.0,29.74,SW,214,2.0,2.0,88,0.00,,,0.00,Wunderground v.1.15,2013-05-22 11:50:00,
2013-05-22 08:00:00,67.9,64.2,29.74,SW,228,2.0,3.0,88,0.00,,,0.00,Wunderground v.1.15,2013-05-22 12:00:00,
2013-05-22 08:10:00,68.2,64.2,29.74,SSW,201,2.0,3.0,87,0.00,,,0.00,Wunderground v.1.15,2013-05-22 12:10:00,
2013-05-22 08:20:00,68.6,64.2,29.74,SE,135,2.0,2.0,86,0.00,,,0.00,Wunderground v.1.15,2013-05-22 12:20:00,
2013-05-22 08:30:00,69.1,64.4,29.73,South,183,2.0,3.0,85,0.00,,,0.00,Wunderground v.1.15,2013-05-22 12:30:00,
2013-05-22 08:40:00,69.4,64.4,29.72,SSW,212,2.0,2.0,84,0.00,,,0.00,Wunderground v.1.15,2013-05-22 12:40:00,
2013-05-22 08:50:00,69.6,64.2,29.73,SSW,196,2.0,2.0,83,0.00,,,0.00,Wunderground v.1.15,2013-05-22 12:50:00,
2013-05-22 09:00:00,70.8,65.4,29.73,SW,232,3.0,5.0,83,0.00,,,0.00,Wunderground v.1.15,2013-05-22 13:00:00,
2013-05-22 09:09:00,70.9,65.1,29.73,SW,221,3.0,3.0,82,0.00,,,0.00,Wunderground v.1.15,2013-05-22 13:09:00,
2013-05-22 09:19:00,70.4,64.3,29.73,SSW,207,3.0,3.0,81,0.00,,,0.00,Wunderground v.1.15,2013-05-22 13:19:00,
2013-05-22 09:29:00,70.4,64.3,29.73,SSW,207,2.0,2.0,81,0.00,,,0.00,Wunderground v.1.15,2013-05-22 13:29:00,
2013-05-22 09:40:00,70.8,64.7,29.73,South,186,2.0,2.0,81,0.00,,,0.00,Wunderground v.1.15,2013-05-22 13:40:00,
2013-05-22 09:50:00,71.2,64.4,29.72,South,175,2.0,3.0,79,0.00,,,0.00,Wunderground v.1.15,2013-05-22 13:50:00,
2013-05-22 10:00:00,71.0,64.2,29.72,SW,232,3.0,3.0,79,0.00,,,0.00,Wunderground v.1.15,2013-05-22 14:00:00,
2013-05-22 10:10:00,71.3,64.1,29.72,SSE,160,3.0,8.0,78,0.00,,,0.00,Wunderground v.1.15,2013-05-22 14:10:00,
2013-05-22 10:20:00,71.4,64.5,29.71,SW,214,3.0,8.0,79,0.00,,,0.00,Wunderground v.1.15,2013-05-22 14:20:00,
2013-05-22 10:30:00,71.5,64.3,29.71,SSW,205,3.0,8.0,78,0.00,,,0.00,Wunderground v.1.15,2013-05-22 14:30:00,
2013-05-22 10:40:00,71.8,64.2,29.71,South,191,3.0,3.0,77,0.00,,,0.00,Wunderground v.1.15,2013-05-22 14:40:00,
2013-05-22 10:50:00,72.6,64.6,29.72,SW,214,4.0,8.0,76,0.00,,,0.00,Wunderground v.1.15,2013-05-22 14:50:00,
2013-05-22 11:00:00,72.6,63.8,29.71,SW,229,4.0,4.0,74,0.00,,,0.00,Wunderground v.1.15,2013-05-22 15:00:00,
2013-05-22 11:10:00,72.2,63.8,29.71,SW,216,4.0,8.0,75,0.00,,,0.00,Wunderground v.1.15,2013-05-22 15:10:00,
2013-05-22 11:20:00,71.7,63.7,29.71,SW,216,5.0,8.0,76,0.00,,,0.00,Wunderground v.1.15,2013-05-22 15:20:00,
2013-05-22 11:30:00,70.9,64.1,29.70,SSW,200,4.0,8.0,79,0.00,,,0.00,Wunderground v.1.15,2013-05-22 15:30:00,
2013-05-22 11:40:00,70.6,64.5,29.70,SSW,213,3.0,8.0,81,0.00,,,0.00,Wunderground v.1.15,2013-05-22 15:40:00,
2013-05-22 11:50:00,71.1,64.6,29.70,SE,145,3.0,8.0,80,0.00,,,0.00,Wunderground v.1.15,2013-05-22 15:50:00,
2013-05-22 12:00:00,71.3,64.1,29.71,South,174,4.0,4.0,78,0.00,,,0.00,Wunderground v.1.15,2013-05-22 16:00:00,
2013-05-22 12:10:00,71.1,63.5,29.70,SSW,207,6.0,6.0,77,0.00,,,0.00,Wunderground v.1.15,2013-05-22 16:10:00,
2013-05-22 12:19:00,71.2,63.6,29.69,South,173,5.0,5.0,77,0.00,,,0.00,Wunderground v.1.15,2013-05-22 16:19:00,
2013-05-22 12:29:00,71.3,64.1,29.68,South,188,5.0,5.0,78,0.00,,,0.00,Wunderground v.1.15,2013-05-22 16:29:00,
2013-05-22 12:40:00,71.4,64.9,29.68,SSW,205,4.0,6.0,80,0.00,,,0.00,Wunderground v.1.15,2013-05-22 16:40:00,
2013-05-22 12:49:00,71.6,64.7,29.70,WSW,257,5.0,10.0,79,0.00,,,0.00,Wunderground v.1.15,2013-05-22 16:49:00,
2013-05-22 12:59:00,71.5,64.6,29.70,WSW,258,5.0,5.0,79,0.00,,,0.00,Wunderground v.1.15,2013-05-22 16:59:00,
2013-05-22 13:09:00,72.7,65.1,29.70,SW,215,5.0,12.0,77,0.00,,,0.00,Wunderground v.1.15,2013-05-22 17:09:00,
2013-05-22 13:19:00,73.3,64.5,29.70,SSW,203,5.0,5.0,74,0.00,,,0.00,Wunderground v.1.15,2013-05-22 17:19:00,
2013-05-22 13:30:00,75.3,64.8,29.69,WSW,244,4.0,12.0,70,0.00,,,0.00,Wunderground v.1.15,2013-05-22 17:30:00,
2013-05-22 13:40:00,75.6,64.3,29.69,South,170,6.0,12.0,68,0.00,,,0.00,Wunderground v.1.15,2013-05-22 17:40:00,
2013-05-22 13:50:00,76.4,64.2,29.68,South,181,5.0,5.0,66,0.00,,,0.00,Wunderground v.1.15,2013-05-22 17:50:00,
2013-05-22 14:00:00,77.0,64.8,29.68,SW,217,6.0,12.0,66,0.00,,,0.00,Wunderground v.1.15,2013-05-22 18:00:00,
2013-05-22 14:10:00,78.3,63.3,29.68,SW,225,7.0,12.0,60,0.00,,,0.00,Wunderground v.1.15,2013-05-22 18:10:00,
2013-05-22 14:20:00,78.6,63.6,29.67,WSW,251,7.0,7.0,60,0.00,,,0.00,Wunderground v.1.15,2013-05-22 18:20:00,
2013-05-22 14:30:00,78.6,61.6,29.67,SW,222,5.0,5.0,56,0.00,,,0.00,Wunderground v.1.15,2013-05-22 18:30:00,
2013-05-22 14:40:00,79.0,63.0,29.67,SW,221,5.0,12.0,58,0.00,,,0.00,Wunderground v.1.15,2013-05-22 18:40:00,
2013-05-22 14:50:00,79.9,60.7,29.66,SW,215,6.0,13.0,52,0.00,,,0.00,Wunderground v.1.15,2013-05-22 18:50:00,
2013-05-22 15:00:00,80.3,60.5,29.66,SSW,197,7.0,7.0,51,0.00,,,0.00,Wunderground v.1.15,2013-05-22 19:00:00,
2013-05-22 15:10:00,81.4,61.0,29.66,SW,220,5.0,5.0,50,0.00,,,0.00,Wunderground v.1.15,2013-05-22 19:10:00,
2013-05-22 15:20:00,82.3,60.6,29.65,SSW,207,6.0,10.0,48,0.00,,,0.00,Wunderground v.1.15,2013-05-22 19:20:00,
2013-05-22 15:30:00,81.5,59.9,29.65,WNW,293,6.0,6.0,48,0.00,,,0.00,Wunderground v.1.15,2013-05-22 19:30:00,
2013-05-22 15:40:00,81.2,59.1,29.65,SW,215,6.0,6.0,47,0.00,,,0.00,Wunderground v.1.15,2013-05-22 19:40:00,
2013-05-22 15:50:00,80.7,59.8,29.65,SSW,210,5.0,5.0,49,0.00,,,0.00,Wunderground v.1.15,2013-05-22 19:50:00,
2013-05-22 16:00:00,80.3,60.0,29.64,WSW,257,5.0,5.0,50,0.00,,,0.00,Wunderground v.1.15,2013-05-22 20:00:00,
2013-05-22 16:10:00,80.1,59.2,29.64,SW,215,5.0,20.0,49,0.00,,,0.00,Wunderground v.1.15,2013-05-22 20:10:00,
2013-05-22 16:20:00,78.7,59.0,29.64,SW,231,6.0,20.0,51,0.00,,,0.00,Wunderground v.1.15,2013-05-22 20:20:00,
2013-05-22 16:30:00,77.5,60.1,29.65,SSW,207,7.0,7.0,55,0.00,,,0.00,Wunderground v.1.15,2013-05-22 20:30:00,
2013-05-22 16:39:00,76.7,60.3,29.66,SW,233,6.0,6.0,57,0.00,,,0.00,Wunderground v.1.15,2013-05-22 20:39:00,
2013-05-22 16:49:00,72.7,63.1,29.66,WNW,285,7.0,20.0,72,0.00,,,0.00,Wunderground v.1.15,2013-05-22 20:49:00,
2013-05-22 16:59:00,71.7,63.4,29.66,WNW,295,6.0,20.0,75,0.00,,,0.00,Wunderground v.1.15,2013-05-22 20:59:00,
2013-05-22 17:09:00,71.3,63.0,29.66,West,274,6.0,6.0,75,0.00,,,0.00,Wunderground v.1.15,2013-05-22 21:09:00,
2013-05-22 17:19:00,69.9,64.2,29.66,WNW,303,4.0,20.0,82,0.07,,,0.02,Wunderground v.1.15,2013-05-22 21:19:00,
2013-05-22 17:29:00,70.1,64.0,29.66,WNW,290,3.0,3.0,81,0.00,,,0.02,Wunderground v.1.15,2013-05-22 21:29:00,
2013-05-22 17:40:00,70.9,64.8,29.66,WSW,245,2.0,2.0,81,0.00,,,0.02,Wunderground v.1.15,2013-05-22 21:40:00,
2013-05-22 17:50:00,72.9,66.0,29.65,WSW,243,2.0,20.0,79,0.00,,,0.02,Wunderground v.1.15,2013-05-22 21:50:00,
2013-05-22 18:00:00,74.3,65.9,29.65,South,186,3.0,3.0,75,0.00,,,0.02,Wunderground v.1.15,2013-05-22 22:00:00,
2013-05-22 18:09:00,75.2,65.1,29.64,SW,219,3.0,5.0,71,0.00,,,0.02,Wunderground v.1.15,2013-05-22 22:09:00,
2013-05-22 18:20:00,75.2,64.7,29.64,West,264,4.0,4.0,70,0.00,,,0.02,Wunderground v.1.15,2013-05-22 22:20:00,
2013-05-22 18:30:00,75.1,64.6,29.64,WSW,239,3.0,4.0,70,0.00,,,0.02,Wunderground v.1.15,2013-05-22 22:30:00,
2013-05-22 18:40:00,75.1,65.1,29.64,WSW,238,2.0,2.0,71,0.00,,,0.02,Wunderground v.1.15,2013-05-22 22:40:00,
2013-05-22 18:50:00,75.6,64.7,29.64,SW,221,3.0,3.0,69,0.00,,,0.02,Wunderground v.1.15,2013-05-22 22:50:00,
2013-05-22 19:00:00,76.9,63.8,29.64,SW,226,3.0,3.0,64,0.00,,,0.02,Wunderground v.1.15,2013-05-22 23:00:00,
2013-05-22 19:10:00,77.2,59.8,29.65,SW,231,4.0,4.0,55,0.00,,,0.02,Wunderground v.1.15,2013-05-22 23:10:00,
2013-05-22 19:20:00,77.1,59.2,29.65,West,261,2.0,11.0,54,0.00,,,0.02,Wunderground v.1.15,2013-05-22 23:20:00,
2013-05-22 19:30:00,76.2,58.9,29.65,South,169,3.0,3.0,55,0.00,,,0.02,Wunderground v.1.15,2013-05-22 23:30:00,
2013-05-22 19:40:00,75.6,58.8,29.66,WNW,283,3.0,11.0,56,0.00,,,0.02,Wunderground v.1.15,2013-05-22 23:40:00,
2013-05-22 19:50:00,71.2,60.9,29.67,WSW,258,8.0,8.0,70,0.00,,,0.02,Wunderground v.1.15,2013-05-22 23:50:00,
2013-05-22 20:00:00,67.6,60.5,29.67,WNW,284,5.0,5.0,78,0.00,,,0.02,Wunderground v.1.15,2013-05-23 00:00:00,
2013-05-22 20:10:00,67.2,59.7,29.67,WNW,288,3.0,11.0,77,0.00,,,0.02,Wunderground v.1.15,2013-05-23 00:10:00,
2013-05-22 20:20:00,67.1,60.0,29.68,WNW,283,4.0,4.0,78,0.00,,,0.02,Wunderground v.1.15,2013-05-23 00:20:00,
2013-05-22 20:30:00,67.5,60.0,29.68,SW,230,1.0,11.0,77,0.00,,,0.02,Wunderground v.1.15,2013-05-23 00:30:00,
2013-05-22 20:40:00,67.3,59.8,29.69,SSW,196,2.0,2.0,77,0.00,,,0.02,Wunderground v.1.15,2013-05-23 00:40:00,
2013-05-22 20:50:00,67.5,60.0,29.70,SW,217,3.0,11.0,77,0.00,,,0.02,Wunderground v.1.15,2013-05-23 00:50:00,
2013-05-22 21:00:00,67.7,60.2,29.69,SW,231,1.0,1.0,77,0.00,,,0.02,Wunderground v.1.15,2013-05-23 01:00:00,
2013-05-22 21:10:00,67.4,60.7,29.70,SW,217,2.0,2.0,79,0.00,,,0.02,Wunderground v.1.15,2013-05-23 01:10:00,
2013-05-22 21:20:00,67.1,60.7,29.69,SSW,210,1.0,1.0,80,0.00,,,0.02,Wunderground v.1.15,2013-05-23 01:20:00,
2013-05-22 21:29:00,66.4,61.1,29.69,SSW,207,1.0,1.0,83,0.00,,,0.02,Wunderground v.1.15,2013-05-23 01:29:00,
2013-05-22 21:39:00,66.0,61.0,29.69,SSW,205,0.0,0.0,84,0.00,,,0.02,Wunderground v.1.15,2013-05-23 01:39:00,
2013-05-22 21:49:00,65.8,61.2,29.70,SW,214,1.0,2.0,85,0.00,,,0.02,Wunderground v.1.15,2013-05-23 01:49:00,
2013-05-22 22:00:00,65.5,61.2,29.69,SSW,207,0.0,0.0,86,0.00,,,0.02,Wunderground v.1.15,2013-05-23 02:00:00,
2013-05-22 22:09:00,65.3,61.0,29.69,SW,224,0.0,8.0,86,0.00,,,0.02,Wunderground v.1.15,2013-05-23 02:09:00,
2013-05-22 22:19:00,65.1,61.1,29.70,South,182,0.0,8.0,87,0.00,,,0.02,Wunderground v.1.15,2013-05-23 02:19:00,
2013-05-22 22:30:00,65.0,61.0,29.70,SW,225,0.0,-999.0,87,0.00,,,0.02,Wunderground v.1.15,2013-05-23 02:30:00,
2013-05-22 22:35:00,64.9,61.3,29.70,N/A,-737280,0.0,-999.0,88,0.00,,,0.02,Wunderground v.1.15,2013-05-23 02:35:00,
2013-05-22 22:40:00,64.9,61.3,29.70,N/A,-737280,0.0,-999.0,88,0.00,,,0.02,Wunderground v.1.15,2013-05-23 02:40:00,
2013-05-22 22:45:00,64.8,61.2,29.70,N/A,-737280,0.0,-999.0,88,0.00,,,0.02,Wunderground v.1.15,2013-05-23 02:45:00,
2013-05-22 22:50:00,64.8,61.2,29.70,N/A,-737280,0.0,-999.0,88,0.00,,,0.02,Wunderground v.1.15,2013-05-23 02:50:00,
2013-05-22 22:55:00,64.8,61.2,29.70,West,270,0.0,-999.0,88,0.00,,,0.02,Wunderground v.1.15,2013-05-23 02:55:00,
2013-05-22 23:00:00,64.8,61.2,29.70,West,270,0.0,-999.0,88,0.00,,,0.02,Wunderground v.1.15,2013-05-23 03:00:00,
2013-05-22 23:05:00,64.6,61.3,29.70,SSW,203,0.0,-999.0,89,0.00,,,0.02,Wunderground v.1.15,2013-05-23 03:05:00,
2013-05-22 23:10:00,64.6,61.3,29.70,SSW,203,0.0,-999.0,89,0.00,,,0.02,Wunderground v.1.15,2013-05-23 03:10:00,
2013-05-22 23:15:00,64.4,61.4,29.70,SSW,203,0.0,-999.0,90,0.00,,,0.02,Wunderground v.1.15,2013-05-23 03:15:00,
2013-05-22 23:20:00,64.4,61.4,29.70,SSW,203,0.0,-999.0,90,0.00,,,0.02,Wunderground v.1.15,2013-05-23 03:20:00,
2013-05-22 23:25:00,64.2,61.2,29.70,SW,225,0.0,-999.0,90,0.00,,,0.02,Wunderground v.1.15,2013-05-23 03:25:00,
2013-05-22 23:30:00,64.2,61.2,29.70,SW,225,0.0,-999.0,90,0.00,,,0.02,Wunderground v.1.15,2013-05-23 03:30:00,
2013-05-22 23:35:00,63.8,60.8,29.70,SW,225,0.0,-999.0,90,0.00,,,0.02,Wunderground v.1.15,2013-05-23 03:35:00,
2013-05-22 23:40:00,63.8,60.8,29.70,SW,225,0.0,-999.0,90,0.00,,,0.02,Wunderground v.1.15,2013-05-23 03:40:00,
2013-05-22 23:45:00,63.5,60.8,29.70,South,180,0.0,-999.0,91,0.00,,,0.02,Wunderground v.1.15,2013-05-23 03:45:00,
2013-05-22 23:50:00,63.5,60.8,29.70,South,180,0.0,-999.0,91,0.00,,,0.02,Wunderground v.1.15,2013-05-23 03:50:00,
2013-05-22 23:55:00,63.1,60.7,29.70,SSW,203,0.0,-999.0,92,0.00,,,0.02,Wunderground v.1.15,2013-05-23 03:55:00,